Flag for Morocco Weather past 2 weeks in Tangier, Morocco

Now
75 °F

Passing clouds.


Feels Like: 76 °F
Forecast: 70 / 82 °F
Wind: 10 mph from Southwest

Location: Tanger Aerodrome

Current Time: Jul 30, 2015 at 12:02:54 AM

Latest Report: Jul 29, 2015 at 11:30 PM


Visibility: 5 mi

Pressure: 29.92 "Hg

Humidity: 78%

Dew point: 68 °F

Location of TangierLocation

Historic Weather in Tangier — Graph

°F

Tangier temperature yesterday

Maximum temperature yesterday: 82 °F (at 12:00 PM)
Minimum temperature yesterday: 72 °F (at 5:30 AM)
Average temperature yesterday: 77 °F

Past Weeks' High & Low Weather Summary

 TemperatureHumidityPressure
High99 °F (Jul 16, 3:30 PM)94% (Jul 18, 6:30 AM)30.07 "Hg (Jul 18, 6:30 AM)
Low64 °F (Jul 19, 4:30 AM)20% (Jul 16, 5:30 PM)29.83 "Hg (Jul 16, 3:30 PM)
Average78 °F65%29.96 "Hg
* Reported Jul 14 9:00 PM — Jul 29 10:00 PM, Tangier, Weather by CustomWeather, © 2015

Note: Actual official high and low records may vary slightly from our data, if they occured in-between our weather recording intervals... More about our weather records

Advertising

Tangier weather history for previous 24 hours

 ConditionsComfort  
Time TempWeatherWind HumidityBarometerVisibility
10:00 PM
Wed, Jul 29
75 °FPassing clouds.9 mph74%29.92 "Hg5 mi
9:30 PM75 °FPassing clouds.9 mph74%29.89 "Hg5 mi
9:00 PM75 °FClear.8 mph74%29.89 "Hg10 mi
8:30 PM77 °FClear.8 mph69%29.89 "Hg10 mi
8:00 PM77 °FSunny.7 mph69%29.89 "Hg10 mi
7:30 PM77 °FPassing clouds.8 mph65%29.89 "HgN/A
7:00 PM79 °FPassing clouds.7 mph61%29.86 "HgN/A
6:30 PM79 °FPassing clouds.9 mph61%29.86 "HgN/A
6:00 PM79 °FSunny.10 mph61%29.86 "Hg10 mi
5:30 PM79 °FSunny.10 mph65%29.89 "Hg10 mi
5:00 PM79 °FSunny.10 mph65%29.89 "Hg10 mi
4:30 PM79 °FPassing clouds.10 mph70%29.89 "HgN/A
4:00 PM81 °FSunny.12 mph66%29.89 "Hg10 mi
3:00 PM81 °FScattered clouds.13 mph66%29.92 "Hg5 mi
2:30 PM81 °FScattered clouds.15 mph66%29.92 "Hg5 mi
2:00 PM82 °FScattered clouds.16 mph62%29.92 "Hg5 mi
1:30 PM82 °FScattered clouds.16 mph62%29.92 "Hg5 mi
1:00 PM82 °FScattered clouds.16 mph58%29.92 "Hg5 mi
12:30 PM82 °FScattered clouds.17 mph58%29.92 "Hg5 mi
12:00 PM82 °FScattered clouds.15 mph55%29.95 "Hg5 mi
11:30 AM81 °FScattered clouds.16 mph66%29.95 "Hg5 mi
10:30 AM79 °FBroken clouds.17 mph70%29.95 "Hg4 mi
10:00 AM79 °FBroken clouds.14 mph70%29.95 "Hg4 mi
9:30 AM77 °FBroken clouds.15 mph74%29.95 "Hg4 mi
9:00 AM75 °FBroken clouds.14 mph78%29.95 "Hg4 mi
8:30 AM73 °FBroken clouds.12 mph83%29.95 "Hg4 mi
8:00 AM73 °FScattered clouds.10 mph89%29.92 "Hg4 mi
7:30 AM73 °FScattered clouds.9 mph83%29.92 "Hg4 mi
7:00 AM72 °FScattered clouds.6 mph83%29.92 "Hg4 mi
6:30 AM72 °FScattered clouds.6 mph88%29.92 "Hg0 mi
6:00 AM72 °FFog.6 mph78%29.89 "Hg2 mi
5:30 AM72 °FClear.6 mph78%29.89 "Hg10 mi
5:00 AM73 °FPassing clouds.3 mph78%29.89 "HgN/A
4:00 AM73 °FClear.3 mph83%29.89 "Hg10 mi
3:30 AM73 °FPassing clouds.5 mph83%29.89 "HgN/A
3:00 AM75 °FPassing clouds.7 mph78%29.89 "HgN/A
2:30 AM73 °FPassing clouds.5 mph83%29.92 "HgN/A
2:00 AM75 °FPassing clouds.5 mph78%29.92 "HgN/A
1:30 AM75 °FClear.5 mph78%29.92 "Hg10 mi
1:00 AM75 °FClear.3 mph74%29.92 "Hg10 mi
12:30 AM75 °FClear.2 mph69%29.92 "Hg10 mi
12:00 AM77 °FClear.2 mph65%29.92 "Hg10 mi
Weather by CustomWeather, © 2015

See weather overviewHow to use our weather pages